Flag for Angola Weather past 2 weeks in Lubango, Angola

Now
70 °F

Light rain. Partly cloudy.


Feels Like: 70 °F
Forecast: 54 / 74 °F
Wind: 6 mph from Northwest

Location: Ondangwa

Current Time: Feb 1, 2015 at 6:02:19 AM

Latest Report: Feb 1, 2015 at 5:00 AM


Visibility: N/A

Pressure: 29.98 "Hg

Humidity: 88%

Dew point: 66 °F

Location of LubangoLocation

Historic Weather in Lubango — Graph

°F

Lubango temperature yesterday

Maximum temperature yesterday: 84 °F (at 12:00 PM)
Minimum temperature yesterday: 70 °F (at 9:00 PM)
Average temperature yesterday: 75 °F

Past Weeks' High & Low Weather Summary

 TemperatureHumidityPressure
High99 °F (Jan 18, 4:00 PM)94% (Jan 23, 8:00 PM)30.07 "Hg (Jan 23, 8:00 PM)
Low68 °F (Jan 25, 6:00 AM)15% (Jan 18, 4:00 PM)29.80 "Hg (Jan 18, 5:00 PM)
Average79 °F56%29.96 "Hg
* Reported Jan 17 4:00 AM — Feb 1 4:00 AM, Lubango, Weather by CustomWeather, © 2014

Note: Actual official high and low records may vary slightly from our data, if they occured in-between our weather recording intervals... More about our weather records

Advertising

Lubango weather history for previous 24 hours

 ConditionsComfort  
Time TempWeatherWind HumidityBarometerVisibility
4:00 AM
Feb 1
70 °FMild.5 mph88%29.98 "HgN/A
3:00 AM70 °FMild.1 mph88%29.98 "HgN/A
2:00 AM70 °FMild.3 mph88%29.95 "HgN/A
1:00 AM72 °FMild.3 mph83%29.98 "HgN/A
12:00 AM72 °FMild.2 mph78%29.98 "HgN/A
11:00 PM
Jan 31
70 °FMild.2 mph83%29.98 "HgN/A
10:00 PM70 °FMild.1 mph83%29.98 "HgN/A
9:00 PM70 °FMild.3 mph83%29.95 "HgN/A
8:00 PM72 °FMild.5 mph73%29.98 "HgN/A
6:00 PM77 °FWarm.5 mph65%29.86 "HgN/A
5:00 PM79 °FWarm.6 mph61%29.86 "HgN/A
3:00 PM77 °FWarm.7 mph65%29.92 "HgN/A
2:00 PM75 °FMild.9 mph65%29.92 "HgN/A
1:00 PM72 °FScattered showers. Scattered clouds.12 mph78%29.95 "HgN/A
12:00 PM84 °FScattered showers. Scattered clouds.10 mph51%30.01 "HgN/A
10:00 AM79 °FPassing clouds.3 mph58%30.04 "HgN/A
9:00 AM77 °FPassing clouds.6 mph65%30.01 "HgN/A
8:00 AM75 °FPassing clouds.7 mph69%30.01 "HgN/A
7:00 AM73 °FPassing clouds.2 mph74%30.01 "HgN/A
Weather by CustomWeather, © 2014

See weather overviewHow to use our weather pages